This demonstration page uses our WeatherBlox Daily Observations layout. Learn more.

Left ArrowRight Arrow

Hourly Observations for July 8, 2015

Temp ( °F °C ) Dew Point ( °F °C ) Humidity (%) Winds ( mph kmh ) Pressure ( in mb ) Visibility ( mi km ) Precip ( " mm )
12:53 am 00:53 Clear 73 22.8 64 17.8 74 74 E 14 22 29.85 1011 10 16 0.00 0.00
1:49 am 01:49 Mostly Cloudy 73 23 64 18 74 74 E 8 13 29.88 1012 10 16 0.00 0.00
1:53 am 01:53 Mostly Cloudy 73 22.8 64 17.8 74 74 E 6 9 29.88 1012 10 16 0.00 0.00
2:53 am 02:53 Mostly Cloudy 73 22.8 65 18.3 76 76 E 7 11 29.87 1011 10 16 0.00 0.00
3:53 am 03:53 Cloudy 73 22.8 65 18.3 76 76 N 7 11 29.85 1011 10 16 0.00 0.00
4:53 am 04:53 Cloudy 71 21.7 65 18.3 81 81 NE 9 15 29.85 1011 10 16 0.00 0.00
5:53 am 05:53 Cloudy 72 22.2 65 18.3 79 79 NE 7 11 29.86 1011 10 16 0.00 0.00
6:11 am 06:11 Cloudy 72 22.2 65 18.3 79 79 NNE 7 11 29.85 1011 10 16 0.00 0.00
6:40 am 06:40 Cloudy 72 22 64 18 78 78 ENE 9 15 29.91 1013 10 16 0.00 0.00
6:50 am 06:50 Cloudy 72 22 64 18 78 78 ENE 7 11 29.91 1013 10 16 0.00 0.00
6:53 am 06:53 Cloudy 72 22.2 65 18.3 79 79 ENE 8 13 29.89 1012 10 16 0.00 0.00
7:01 am 07:01 Cloudy 72 22.2 65 18.3 79 79 ENE 9 15 29.91 1013 10 16 0.00 0.00
7:25 am 07:25 Cloudy 72 22.2 65 18.3 79 79 E 9 15 29.91 1013 10 16 0.00 0.00
7:53 am 07:53 Cloudy 72 22.2 65 18.3 79 79 E 6 9 29.91 1013 10 16 0.00 0.00
8:53 am 08:53 Cloudy 73 22.8 66 18.9 79 79 NE 7 11 29.92 1013 10 16 0.00 0.00
9:01 am 09:01 Cloudy 73 22.8 66 18.9 79 79 ENE 6 9 29.91 1013 10 16 0.00 0.00
9:53 am 09:53 Cloudy 74 23.3 65 18.3 74 74 ESE 7 11 29.93 1014 10 16 0.00 0.00
10:39 am 10:39 Mostly Cloudy 76 24.4 65 18.3 69 69 Calm 29.91 1013 10 16 0.00 0.00
10:53 am 10:53 Mostly Cloudy 78 25.6 65 18.3 64 64 VRB 5 7 29.92 1013 10 16 0.00 0.00
11:29 am 11:29 Cloudy 80 26.7 66 18.9 62 62 ESE 9 15 29.85 1011 10 16 0.00 0.00
11:53 am 11:53 Mostly Cloudy 81 27.2 65 18.3 58 58 SSE 7 11 29.89 1012 10 16 0.00 0.00
12:53 pm 12:53 Mostly Cloudy 84 28.9 63 17.2 49 49 VRB 6 9 29.87 1012 10 16 0.00 0.00
1:53 pm 13:53 Mostly Cloudy 86 30 63 17.2 46 46 Calm 29.85 1011 10 16 0.00 0.00
2:53 pm 14:53 Partly Cloudy 89 31.7 63 17.2 42 42 SSE 7 11 29.82 1010 10 16 0.00 0.00
3:53 pm 15:53 Partly Cloudy 91 32.8 63 17.2 39 39 SE 9 15 29.79 1009 10 16 0.00 0.00
4:53 pm 16:53 Mostly Sunny 91 32.8 63 17.2 39 39 Calm 29.77 1008 10 16 0.00 0.00
5:53 pm 17:53 Mostly Sunny 91 32.8 63 17.2 39 39 SE 14 22 29.76 1008 10 16 0.00 0.00
6:53 pm 18:53 Sunny 91 32.8 63 17.2 39 39 SE 9 15 29.75 1007 10 16 0.00 0.00
7:53 pm 19:53 Sunny 89 31.7 63 17.2 42 42 ESE 15 24 29.76 1008 10 16 0.00 0.00
8:53 pm 20:53 Sunny 87 30.6 65 18.3 48 48 SE 17 28 29.77 1008 10 16 0.00 0.00
9:53 pm 21:53 Clear 84 28.9 65 18.3 53 53 SSE 22 35 29.80 1009 10 16 0.00 0.00
10:53 pm 22:53 Clear 82 27.8 66 18.9 58 58 SSE 20 31 29.82 1010 10 16 0.00 0.00
11:53 pm 23:53 Clear 80 26.7 66 18.9 62 62 SSE 18 30 29.83 1010 10 16 0.00 0.00

Powered by AerisWeather